Weather History for Tacoma, WA

Change the Weather History Date:

Monday, December 2, 2013

  Actual Average Record
Temperature  
Mean Temperature 38 °F -  
Max Temperature 42 °F 46 °F 59 °F (1958)
Min Temperature 33 °F 33 °F 23 °F (2009)
Degree Days  
Heating Degree Days 28    
Moisture  
Dew Point 34 °F    
Average Humidity 85    
Maximum Humidity 100    
Minimum Humidity 66    
Precipitation  
Precipitation 0.00 in - - ()
Sea Level Pressure  
Sea Level Pressure 29.96 in    
Wind  
Wind Speed 9 mph (SW)    
Max Wind Speed 15 mph    
Max Gust Speed 23 mph    
Visibility 10 miles    
Events Rain    
Averages and records for this station are not official NWS values.
T = Trace of Precipitation, MM = Missing Value Source: NWS Daily Summary

Daily Weather History Graph

Daily Weather History Graph

Search for Another Location

Airport:

Trip Planner

Search our weather history database for the weather conditions in past years. The results will help you decide how hot, cold, wet, or windy it might be!

Date:

Astronomy

Dec. 02, 2013 Rise Set
Actual Time 7:37 AM PST 4:21 PM PST
Civil Twilight 7:02 AM PST 4:56 PM PST
Nautical Twilight 6:23 AM PST 5:34 PM PST
Astronomical Twilight 5:47 AM PST 6:11 PM PST
Moon 7:05 AM PST (12/2) 4:31 PM PST (12/2)
Length of Visible Light 9h 54m
Length of Day
8h 44m
Waning Crescent, 0% of the Moon is Illuminated
Dec 2
Waning Crescent
Dec 2
New
Dec 9
First Quarter
Dec 17
Full
Dec 25
Last Quarter

Hourly Weather History & Observations

Time (PST) Temp. Windchill Dew Point Humidity Pressure Visibility Wind Dir Wind Speed Gust Speed Precip Events Conditions
12:18 AM 42.8 °F 35.4 °F 35.6 °F 76% 29.86 in 10.0 mi WSW 15.0 mph 23.0 mph N/A   Overcast
12:58 AM 41.5 °F 35.0 °F 35.2 °F 78% 29.90 in 10.0 mi SW 11.5 mph - N/A   Overcast
1:58 AM 40.8 °F 33.3 °F 33.4 °F 75% 29.89 in 10.0 mi SW 13.8 mph - N/A   Mostly Cloudy
2:58 AM 40.3 °F 33.4 °F 32.0 °F 72% 29.90 in 10.0 mi WSW 11.5 mph 19.6 mph N/A   Scattered Clouds
3:58 AM 37.8 °F 30.7 °F 33.3 °F 84% 29.90 in 10.0 mi SW 10.4 mph - N/A   Partly Cloudy
4:18 AM 39.2 °F 34.2 °F 33.8 °F 81% 29.88 in 10.0 mi SW 6.9 mph - N/A   Mostly Cloudy
4:34 AM 39.2 °F 34.2 °F 35.6 °F 87% 29.88 in 10.0 mi SW 6.9 mph - N/A Rain Light Rain
4:46 AM 39.2 °F 33.6 °F 35.6 °F 87% 29.87 in 10.0 mi SW 8.1 mph - N/A   Mostly Cloudy
4:51 AM 37.4 °F 32.1 °F 35.6 °F 93% 29.87 in 10.0 mi SSW 6.9 mph - N/A   Scattered Clouds
4:58 AM 37.8 °F 30.7 °F 34.7 °F 89% 29.89 in 10.0 mi SSW 10.4 mph - 0.00 in   Partly Cloudy
5:58 AM 37.4 °F 28.9 °F 34.5 °F 89% 29.88 in 10.0 mi SSW 13.8 mph - N/A   Mostly Cloudy
6:58 AM 36.7 °F 28.0 °F 34.2 °F 91% 29.89 in 10.0 mi SSW 13.8 mph 21.9 mph N/A   Mostly Cloudy
7:58 AM 35.4 °F 26.8 °F 33.6 °F 93% 29.89 in 10.0 mi SSW 12.7 mph - N/A   Clear
8:58 AM 35.8 °F 28.3 °F 34.3 °F 94% 29.91 in 10.0 mi SSW 10.4 mph - N/A   Clear
9:58 AM 37.6 °F 31.6 °F 33.4 °F 85% 29.92 in 10.0 mi SW 8.1 mph - N/A   Mostly Cloudy
10:58 AM 39.4 °F 33.2 °F 34.0 °F 81% 29.94 in 10.0 mi SSW 9.2 mph - N/A   Scattered Clouds
11:33 AM 42.8 °F 37.5 °F 33.8 °F 70% 29.91 in 10.0 mi SW 9.2 mph - N/A   Mostly Cloudy
11:48 AM 42.8 °F 36.6 °F 32.0 °F 66% 29.92 in 10.0 mi SW 11.5 mph 19.6 mph N/A   Scattered Clouds
11:58 AM 42.4 °F 37.0 °F 32.0 °F 67% 29.94 in 10.0 mi WSW 9.2 mph - N/A   Mostly Cloudy
12:13 PM 42.8 °F 38.0 °F 32.0 °F 66% 29.91 in 10.0 mi SW 8.1 mph - N/A   Mostly Cloudy
12:53 PM 41.0 °F 34.7 °F 32.0 °F 70% 29.92 in 10.0 mi West 10.4 mph - N/A   Mostly Cloudy
12:58 PM 41.2 °F 34.1 °F 32.0 °F 70% 29.94 in 10.0 mi West 12.7 mph - N/A   Scattered Clouds
1:38 PM 42.8 °F 37.0 °F 32.0 °F 66% 29.93 in 10.0 mi SW 10.4 mph 19.6 mph N/A   Mostly Cloudy
1:43 PM 42.8 °F 37.5 °F 32.0 °F 66% 29.93 in 10.0 mi WSW 9.2 mph - N/A   Mostly Cloudy
1:58 PM 41.9 °F 36.9 °F 32.5 °F 69% 29.95 in 10.0 mi WSW 8.1 mph - N/A   Scattered Clouds
2:18 PM 42.8 °F 37.0 °F 32.0 °F 66% 29.94 in 10.0 mi SSW 10.4 mph - N/A   Mostly Cloudy
2:38 PM 42.8 °F 36.6 °F 32.0 °F 66% 29.94 in 10.0 mi WSW 11.5 mph - N/A   Scattered Clouds
2:58 PM 41.9 °F 36.3 °F 31.6 °F 67% 29.96 in 10.0 mi SW 9.2 mph - N/A   Scattered Clouds
3:13 PM 41.0 °F 34.7 °F 32.0 °F 70% 29.95 in 10.0 mi SSW 10.4 mph - N/A   Mostly Cloudy
3:28 PM 41.0 °F 34.7 °F 33.8 °F 76% 29.95 in 10.0 mi South 10.4 mph - N/A   Scattered Clouds
3:58 PM 39.4 °F 35.2 °F 33.8 °F 80% 29.98 in 10.0 mi SSE 5.8 mph - N/A   Clear
4:28 PM 35.6 °F 31.7 °F 32.0 °F 87% 29.97 in 10.0 mi SSE 4.6 mph - N/A   Mostly Cloudy
4:58 PM 36.7 °F 32.0 °F 34.5 °F 92% 29.99 in 10.0 mi South 5.8 mph - N/A   Overcast
5:58 PM 36.5 °F 31.8 °F 34.9 °F 94% 30.01 in 10.0 mi South 5.8 mph - N/A   Overcast
6:58 PM 36.5 °F 31.0 °F 34.7 °F 93% 30.01 in 10.0 mi SW 6.9 mph - N/A   Overcast
7:13 PM 35.6 °F 29.9 °F 33.8 °F 93% 30.00 in 10.0 mi SW 6.9 mph - N/A   Mostly Cloudy
7:23 PM 35.6 °F 30.7 °F 33.8 °F 93% 30.00 in 10.0 mi SW 5.8 mph - N/A   Scattered Clouds
7:48 PM 35.6 °F - 33.8 °F 93% 30.01 in 10.0 mi NW 1.2 mph - N/A   Mostly Cloudy
7:58 PM 35.2 °F - 34.3 °F 97% 30.03 in 10.0 mi WNW 1.2 mph - N/A   Mostly Cloudy
8:28 PM 35.6 °F 32.8 °F 33.8 °F 93% 30.02 in 10.0 mi South 3.5 mph - N/A   Overcast
8:43 PM 33.8 °F 30.8 °F 33.8 °F 100% 30.02 in 10.0 mi South 3.5 mph - N/A   Overcast
8:58 PM 34.5 °F - 34.3 °F 99% 30.04 in 10.0 mi South 2.3 mph - N/A   Overcast
9:58 PM 34.5 °F 30.4 °F 34.3 °F 99% 30.05 in 10.0 mi South 4.6 mph - N/A   Overcast
10:44 PM 33.8 °F - 33.8 °F 100% 30.04 in 10.0 mi Calm Calm - N/A   Light Drizzle
10:58 PM 34.0 °F - 33.6 °F 99% 30.06 in 10.0 mi Calm Calm - 0.00 in Rain Light Rain
11:04 PM 33.8 °F - 33.8 °F 100% 30.04 in 10.0 mi SE 2.3 mph - N/A   Overcast
11:19 PM 33.8 °F 30.8 °F 32.0 °F 93% 30.05 in 10.0 mi South 3.5 mph - N/A   Overcast
11:37 PM 33.8 °F 30.8 °F 33.8 °F 100% 30.05 in 10.0 mi South 3.5 mph - N/A Rain Light Rain
11:47 PM 33.8 °F - 33.8 °F 100% 30.05 in 10.0 mi NW 2.3 mph - N/A Rain Light Rain
11:52 PM 35.6 °F - 35.6 °F 100% 30.06 in 8.0 mi North 1.2 mph - N/A Rain Light Rain
11:57 PM 35.6 °F - 35.6 °F 100% 30.05 in 9.0 mi North 1.2 mph - N/A Rain Light Rain
11:58 PM 35.1 °F - 34.9 °F 99% 30.07 in 9.0 mi North 1.2 mph - 0.00 in Rain Light Rain